This is the latest recevied weather packets stored in our database for station/object JE6MIQ-13. If no packets are shown the sender has not sent any weather packets the latest 10 day(s).
| Time | Temp. | Humidity | Pressure | Rain* | Wind** | Luminosity | Snow |
|---|---|---|---|---|---|---|---|
| 1777639353 | 14.44° C | 36% | 1012.2 hPa | 0 mm | - | - | - |
| 1777638753 | 15° C | 33% | 1012.4 hPa | 0 mm | - | - | - |
| 1777638153 | 15° C | 32% | 1012 hPa | 0 mm | - | - | - |
| 1777637553 | 15° C | 32% | 1012 hPa | 0 mm | - | - | - |
| 1777636953 | 15.56° C | 31% | 1012 hPa | 0 mm | - | - | - |
| 1777636353 | 15.56° C | 31% | 1011.8 hPa | 0 mm | - | - | - |
| 1777635752 | 15.56° C | 31% | 1011.8 hPa | 0 mm | - | - | - |
| 1777635154 | 16.11° C | 28% | 1011.6 hPa | 0 mm | - | - | - |
| 1777634552 | 16.11° C | 27% | 1011.1 hPa | 0 mm | - | - | - |
| 1777633952 | 16.67° C | 26% | 1011.1 hPa | 0 mm | - | - | - |
| 1777633353 | 16.67° C | 28% | 1011.1 hPa | 0 mm | - | - | - |
| 1777632752 | 16.67° C | 28% | 1010.6 hPa | 0 mm | - | - | - |
| 1777632153 | 16.67° C | 28% | 1010.6 hPa | 0 mm | - | - | - |
| 1777631553 | 17.22° C | 28% | 1010.1 hPa | 0 mm | - | - | - |
| 1777630952 | 17.22° C | 28% | 1010.1 hPa | 0 mm | - | - | - |
| 1777630352 | 17.22° C | 28% | 1010.1 hPa | 0 mm | - | - | - |
| 1777629752 | 17.78° C | 28% | 1010 hPa | 0 mm | - | - | - |
| 1777629152 | 17.78° C | 28% | 1009.9 hPa | 0 mm | - | - | - |
| 1777628552 | 17.78° C | 28% | 1009.9 hPa | 0 mm | - | - | - |
| 1777627952 | 18.33° C | 28% | 1009.7 hPa | 0 mm | - | - | - |
| 1777627352 | 18.33° C | 28% | 1009.4 hPa | 0 mm | - | - | - |
| 1777626753 | 18.89° C | 28% | 1009.4 hPa | 0 mm | - | - | - |
| 1777626152 | 18.89° C | 28% | 1009.4 hPa | 0 mm | - | - | - |
| 1777625553 | 19.44° C | 28% | 1009.3 hPa | 0 mm | - | - | - |
| 1777624952 | 19.44° C | 28% | 1009.3 hPa | 0 mm | - | - | - |
* Rain latest hour (hover to see other rain measurements)
** Current wind speed in m/s (hover to see current wind gust speed)